[[{"header":{"parameterUnit":"m.s-1","parameterCategory":1,"la1":30.2991,"la2":30.254,"lo1":-89.0895,"lo2":-89.0444,"dy":0.0017,"dx":0.0017,"nx":28,"ny":28,"refTime":"2025-03-20T03:00:00:Z","depth":0,"parameterNumber":2,"parameterNumberName":"U-component_of_WINDS"},"data":[0,0,0,0,0,0,0,0,0,0,0,0,0,0,0,0,0,0,0,0,0,0,0,0,0,0,0,0,0,0,0,0,0,0,0,0,0,0,0,0,0,0,0,0,0,0,0,0,0,0,0,0,0,0,0,0,0,0,0.1325,0.1326,0,0.1394,0.1395,0.1396,0.1431,0.1431,0.1431,0.1431,0.1501,0.1503,0.1505,0,0,0,0,0,0,0,0,0,0,0,0,0,0.1224,0.1225,0.1325,0.1326,0.1327,0.1394,0.1395,0.1396,0.1431,0.1431,0.1431,0.1431,0.1501,0.1503,0.1505,0,0,0,0,0,0,0,0,0,0,0,0,0,0.1277,0.1226,0.1325,0.1353,0.1356,0.1394,0.1395,0.1396,0.1431,0.1431,0.1431,0.1431,0.15,0.1503,0.1505,0.1522,0,0,0.1514,0.1515,0,0,0,0,0,0,0,0,0.1274,0.1281,0.1348,0.1351,0.1354,0.1404,0.1385,0.1438,0.1431,0.1402,0.1431,0.1431,0.1469,0.1474,0.1487,0.1525,0.1528,0.1514,0.1516,0.1517,0.1518,0,0,0,0,0,0,0,0.1271,0.1278,0.1353,0.1349,0.1353,0.1361,0.1369,0.1395,0.1434,0.1405,0.1407,0.1415,0.1471,0.1484,0.1489,0.1529,0.1514,0.1517,0.1518,0.1519,0.1582,0.1582,0,0,0,0,0,0,0.1263,0.1275,0.135,0.1355,0.1314,0.1363,0.1371,0.1388,0.1434,0.1441,0.1415,0.1416,0.1479,0.1486,0.1492,0.1513,0.1517,0.152,0.1521,0.1582,0.1582,0.1582,0,0,0,0,0,0,0.126,0.1269,0.1348,0.1316,0.1326,0.1365,0.1383,0.1389,0.1403,0.1442,0.1449,0.1422,0.148,0.1488,0.1513,0.1516,0.1521,0.1523,0.1582,0.1582,0.1582,0.1555,0,0,0,0,0,0,0.1257,0.1268,0.1275,0.1315,0.1328,0.1369,0.1383,0.1391,0.1407,0.141,0.145,0.1457,0.148,0.1509,0.1516,0.152,0.1526,0.1582,0.1582,0.1582,0.1556,0.1555,0.1553,0,0,0,0,0,0.1253,0.1265,0.1275,0.1284,0.1337,0.1369,0.1376,0.1403,0.1408,0.1415,0.1439,0.1456,0.1514,0.1511,0.152,0.1524,0.1582,0.1582,0.1582,0.1557,0.1555,0.1553,0,0,0,0,0,0,0.1224,0.1271,0.1283,0.1308,0.1334,0.1375,0.1385,0.14,0.1425,0.1427,0.1459,0.1467,0.149,0.151,0.1506,0.1541,0.1549,0.1551,0.1528,0.1526,0.1524,0.152,0.1528,0,0,0,0,0,0.1221,0.1243,0.1282,0.1301,0.1313,0.1346,0.1361,0.1379,0.1408,0.1419,0.1446,0.1473,0.1497,0.1513,0.1537,0.1559,0.1568,0.1566,0.1564,0.1562,0.1564,0.1575,0.1575,0.1582,0.1582,0.1582,0,0,0.1214,0.1242,0.1254,0.1295,0.1318,0.1339,0.1355,0.1378,0.1394,0.1423,0.1448,0.1469,0.1501,0.1524,0.1536,0.1541,0.1563,0.1562,0.1561,0.1563,0.1575,0.1574,0.1574,0.1582,0.1582,0.1582,0,0,0.1212,0.1236,0.1254,0.1275,0.1309,0.133,0.1334,0.1372,0.1387,0.1413,0.1434,0.1453,0.1495,0.1517,0.1533,0.1537,0.1553,0.1544,0.1536,0.1547,0.1546,0.1546,0.1547,0.1547,0.1545,0.1545,0.1545,0,0.12,0.1233,0.1261,0.1281,0.1299,0.1324,0.1342,0.1362,0.1401,0.1412,0.1417,0.1469,0.1492,0.152,0.1521,0.1533,0.1539,0.154,0.1544,0.1544,0.1544,0.1545,0.1546,0.1544,0.1544,0.1544,0.1544,0,0.1216,0.1238,0.1248,0.1285,0.1304,0.1323,0.1352,0.1367,0.1383,0.1403,0.1429,0.1458,0.1488,0.1496,0.1512,0.1526,0.1528,0.1538,0.1547,0.1542,0.1543,0.1544,0.1542,0.1542,0.1543,0.1543,0,0,0.12,0.125,0.1253,0.127,0.1308,0.1326,0.1345,0.1374,0.1386,0.1411,0.1428,0.1461,0.147,0.1489,0.1507,0.1517,0.1517,0.1526,0.1527,0.1523,0.1533,0.1526,0.1526,0.1527,0.1527,0.1527,0.153,0,0.1204,0.124,0.1264,0.1291,0.1312,0.1335,0.1352,0.1376,0.1396,0.1416,0.1437,0.146,0.147,0.1481,0.1492,0.1515,0.152,0.1515,0.1543,0.1543,0.1534,0.1527,0.1519,0.1521,0.1531,0.1531,0.1531,0,0.1214,0.1238,0.1267,0.1301,0.131,0.1325,0.1353,0.1371,0.1399,0.1412,0.1431,0.145,0.147,0.1476,0.1505,0.1501,0.1513,0.1526,0.1527,0.1531,0.1538,0.1531,0.1522,0.1522,0.1533,0.1533,0.1533,0,0.1199,0.1239,0.1261,0.1274,0.1314,0.1324,0.1341,0.1369,0.1384,0.1408,0.1418,0.1444,0.1458,0.1477,0.1502,0.1504,0.1527,0.1536,0.1538,0.1538,0.1543,0.1543,0.1536,0.155,0.155,0.155,0.155,0,0.1201,0.1218,0.1255,0.1268,0.1287,0.1314,0.1331,0.135,0.1374,0.1391,0.1413,0.1428,0.1459,0.1478,0.1497,0.1517,0.1523,0.1534,0.1539,0.1533,0.1531,0.1542,0.1542,0.155,0.155,0.155,0.155,0,0.1188,0.1214,0.1239,0.1274,0.1284,0.1296,0.1326,0.1339,0.1359,0.138,0.1386,0.1417,0.144,0.1466,0.1498,0.1511,0.1529,0.1537,0.152,0.1523,0.1524,0.1524,0.1525,0.1526,0.1539,0.1539,0.1539,0,0.1188,0.1202,0.1238,0.1251,0.1267,0.1287,0.1303,0.1329,0.1344,0.1375,0.1385,0.1409,0.1431,0.1466,0.1491,0.1515,0.1523,0.1522,0.1527,0.1519,0.1523,0.1522,0.1523,0.1521,0.152,0.152,0.152,0,0.1186,0.1197,0.1219,0.1244,0.1261,0.1283,0.1305,0.1314,0.1344,0.136,0.1383,0.14,0.1431,0.1455,0.1482,0.1499,0.1514,0.1518,0.152,0.1513,0.1503,0.1508,0.1516,0.1518,0.1518,0.1518,0.1518,0.1519,0.1179,0.1192,0.1219,0.1241,0.126,0.128,0.1294,0.1315,0.1335,0.1363,0.1377,0.14,0.1425,0.1463,0.1479,0.1497,0.1502,0.1505,0.1506,0.1506,0.1504,0.15,0.1502,0.1502,0.1502,0.1502,0.1502,0,0.1178,0.1196,0.1216,0.1246,0.1263,0.1275,0.13,0.1313,0.1334,0.1356,0.1376,0.1402,0.1425,0.1451,0.1475,0.1484,0.1491,0.149,0.1489,0.1493,0.1498,0.1494,0.1483,0.1483,0.1483,0.1483,0.1483,0.1483,0.1179,0.12,0.1214,0.1244,0.1262,0.1285,0.1298,0.1315,0.1333,0.1362,0.138,0.1397,0.142,0.1446,0.1467,0.1474,0.1481,0.1477,0.1486,0.1491,0.1493,0.1494,0.1491,0.1479,0.1479,0.1479,0.1479,0.1479]},{"header":{"parameterUnit":"m.s-1","parameterCategory":1,"la1":30.2991,"la2":30.254,"lo1":-89.0895,"lo2":-89.0444,"dy":0.0017,"dx":0.0017,"nx":28,"ny":28,"refTime":"2025-03-20T03:00:00:Z","depth":0,"parameterNumber":3,"parameterNumberName":"V-component_of_WINDS"},"data":[0,0,0,0,0,0,0,0,0,0,0,0,0,0,0,0,0,0,0,0,0,0,0,0,0,0,0,0,0,0,0,0,0,0,0,0,0,0,0,0,0,0,0,0,0,0,0,0,0,0,0,0,0,0,0,0,0,0,4.245,4.245,0,4.2415,4.2414,4.2414,4.2409,4.2409,4.241,4.241,4.2368,4.2366,4.2365,0,0,0,0,0,0,0,0,0,0,0,0,0,4.251,4.2509,4.245,4.245,4.2449,4.2415,4.2414,4.2414,4.2409,4.2409,4.241,4.241,4.2368,4.2367,4.2365,0,0,0,0,0,0,0,0,0,0,0,0,0,4.248,4.2509,4.245,4.2443,4.2442,4.2415,4.2414,4.2413,4.2409,4.2409,4.241,4.2411,4.2369,4.2367,4.2365,4.234,0,0,4.2358,4.2357,0,0,0,0,0,0,0,0,4.2482,4.2478,4.2445,4.2444,4.2442,4.2417,4.242,4.2389,4.2409,4.2421,4.241,4.2411,4.2383,4.238,4.2372,4.2338,4.2336,4.2358,4.2356,4.2355,4.2355,0,0,0,0,0,0,0,4.2484,4.2479,4.2436,4.2444,4.2443,4.244,4.2436,4.2414,4.2399,4.242,4.242,4.2416,4.2383,4.2374,4.2371,4.2336,4.2358,4.2356,4.2354,4.2354,4.2281,4.228,0,0,0,0,0,0,4.2488,4.2481,4.2437,4.2435,4.2464,4.2439,4.2434,4.2424,4.24,4.2397,4.2416,4.2416,4.2378,4.2373,4.2369,4.234,4.2355,4.2353,4.2352,4.2281,4.228,4.228,0,0,0,0,0,0,4.2489,4.2484,4.2439,4.2458,4.2452,4.2437,4.2426,4.2423,4.2415,4.2396,4.2393,4.241,4.2378,4.2372,4.2348,4.2338,4.2352,4.235,4.2282,4.2281,4.228,4.228,0,0,0,0,0,0,4.2491,4.2485,4.2476,4.2458,4.2451,4.2419,4.2425,4.2422,4.2412,4.2412,4.239,4.2387,4.2378,4.2351,4.2346,4.2335,4.2349,4.2283,4.2282,4.228,4.228,4.2279,4.2277,0,0,0,0,0,4.2493,4.2476,4.2476,4.247,4.2441,4.2419,4.2415,4.2406,4.2411,4.2402,4.239,4.2387,4.234,4.2349,4.2343,4.2331,4.2283,4.2282,4.2281,4.2281,4.2279,4.2277,0,0,0,0,0,0,4.2491,4.2473,4.2473,4.245,4.2436,4.2418,4.2406,4.2404,4.2387,4.2388,4.2377,4.2372,4.2348,4.2337,4.2347,4.2307,4.2312,4.2309,4.2315,4.2312,4.2311,4.2314,4.2347,0,0,0,0,0,4.2489,4.2474,4.2459,4.244,4.2433,4.2421,4.2411,4.2406,4.2391,4.2384,4.2371,4.2354,4.2336,4.2323,4.2305,4.2279,4.2274,4.2268,4.2267,4.2265,4.2263,4.2248,4.2246,4.2275,4.2275,4.2275,0,0,4.2482,4.2471,4.2462,4.2439,4.2428,4.2412,4.2416,4.2398,4.2386,4.2381,4.2358,4.2347,4.2328,4.2303,4.2291,4.2293,4.2254,4.2264,4.2263,4.2261,4.2247,4.2244,4.2241,4.2274,4.2274,4.2275,0,0,4.2462,4.2452,4.2436,4.2425,4.2409,4.2401,4.2397,4.238,4.2373,4.235,4.2346,4.233,4.2299,4.2286,4.2275,4.2251,4.2248,4.2245,4.2237,4.2223,4.2221,4.2218,4.221,4.2207,4.2243,4.2243,4.2243,0,4.2456,4.2433,4.2427,4.241,4.24,4.2397,4.238,4.2369,4.2347,4.2339,4.2342,4.2304,4.229,4.2262,4.2257,4.2248,4.2242,4.2247,4.2222,4.222,4.2217,4.2209,4.2206,4.2243,4.2243,4.2243,4.2243,0,4.2426,4.241,4.2398,4.238,4.2368,4.2351,4.2341,4.233,4.2326,4.2318,4.2294,4.2279,4.2258,4.2251,4.2246,4.2222,4.2224,4.2224,4.2229,4.2215,4.2206,4.2203,4.2243,4.2243,4.2243,4.2243,0,0,4.2403,4.2382,4.2378,4.237,4.2352,4.2339,4.2322,4.2303,4.2294,4.2279,4.2263,4.2237,4.2238,4.2226,4.222,4.2207,4.219,4.221,4.2209,4.2206,4.2162,4.2161,4.2158,4.2188,4.2187,4.2187,4.2164,0,4.2381,4.2352,4.2346,4.232,4.2305,4.2303,4.2287,4.2274,4.2266,4.2251,4.2241,4.2223,4.2226,4.2219,4.2206,4.2195,4.2181,4.2196,4.2172,4.2171,4.2177,4.2154,4.2153,4.2132,4.216,4.216,4.216,0,4.2351,4.2338,4.2311,4.2296,4.229,4.2276,4.2259,4.2246,4.223,4.2225,4.2212,4.2208,4.2188,4.2195,4.2167,4.2178,4.2168,4.216,4.2159,4.2156,4.2164,4.215,4.2125,4.2122,4.2155,4.2155,4.2155,0,4.2337,4.2312,4.2293,4.2286,4.2268,4.2259,4.2251,4.2237,4.2226,4.2211,4.2204,4.2185,4.2175,4.216,4.215,4.2156,4.2123,4.2129,4.2118,4.2118,4.211,4.2111,4.2083,4.2104,4.2104,4.2104,4.2104,0,4.2313,4.2296,4.2287,4.2275,4.2256,4.225,4.2231,4.2223,4.221,4.2195,4.2191,4.2178,4.2166,4.215,4.2142,4.212,4.2115,4.211,4.2108,4.211,4.2111,4.2103,4.2104,4.2103,4.2104,4.2104,4.2104,0,4.2293,4.2287,4.2266,4.2252,4.2248,4.2235,4.2222,4.2209,4.2202,4.2184,4.2179,4.2166,4.2147,4.2136,4.2112,4.2106,4.2082,4.2081,4.2088,4.2087,4.2076,4.2077,4.2042,4.2037,4.2062,4.2061,4.2061,0,4.2278,4.2266,4.2251,4.2243,4.2235,4.222,4.2211,4.2203,4.2193,4.2175,4.2165,4.2147,4.2131,4.2101,4.2088,4.207,4.2068,4.2057,4.2065,4.2068,4.2067,4.2068,4.2067,4.2055,4.2055,4.2055,4.2055,0,4.2252,4.225,4.2237,4.2223,4.2211,4.2199,4.2187,4.2179,4.217,4.2158,4.214,4.2129,4.2105,4.2086,4.2067,4.2057,4.2054,4.2052,4.2049,4.2051,4.2055,4.2053,4.2084,4.2053,4.2053,4.2053,4.2053,4.2053,4.2235,4.2224,4.2213,4.2198,4.2189,4.2178,4.2166,4.2158,4.2143,4.2125,4.2121,4.2102,4.2087,4.2061,4.2051,4.2035,4.2036,4.2031,4.2029,4.2028,4.2028,4.2059,4.2031,4.2031,4.2031,4.2031,4.2031,0,4.2208,4.2201,4.2188,4.2173,4.2161,4.2162,4.2148,4.2138,4.2122,4.211,4.2096,4.2075,4.2057,4.2044,4.2025,4.2015,4.2013,4.201,4.2011,4.2008,4.2027,4.2033,4.2012,4.2012,4.2012,4.2012,4.2012,4.2012,4.2193,4.2176,4.2172,4.2149,4.2142,4.2125,4.2117,4.2107,4.2097,4.2075,4.2061,4.2053,4.204,4.202,4.2004,4.2,4.1993,4.1991,4.1987,4.2005,4.2007,4.2009,4.2014,4.1989,4.1989,4.1969,4.1969,4.1969]}]]